Weather in Russkaya Polyana

Russia / Omsk Oblast     53°46′43″N   73°52′42″E
temp.,
°C
wind,
m/s
gust,
m/s
humid.,
%
clouds,
%
prec.,
mm/h
press.,
hPa
HPBL,
m
19 april, mon
mon1900:00−4n10156570 0.1 10191049
03:00−4n812575 0.0 10221055
06:00−5n795449 0.0 10251051
09:00−5n78445 0.0 10271148
12:00−3n67330 0.0 10281385
15:00−2n67335 0.0 10281715
18:00−2n6734100 0.0 10281968
21:00−4n48465 0.0 1030441
20 april, tue
tue2000:00−4nne46495 0.0 1031672
03:00−5nne46471 0.0 10311241
06:00−5n454658 0.0 10321300
09:00−4nne444197 0.0 10321419
12:00−2nne33345 0.0 10321390
15:00−1nnw22310 0.0 10301406
18:000wnw33330 0.0 10291372
21:00−2w34465 0.0 102972
21 april, wed
wed2100:00−2wsw48505 0.0 1028209
03:00−1wsw6114785 0.0 1025396
06:00−1wsw7144897 0.0 1024428
09:00+1nw71074100 0.0 1024677
12:00+3nnw6969100 0.1 10251131
15:00+5nnw484799 0.0 10251791
18:00+6nne784792 0.0 10271806
21:00+1n49645 0.0 1031227
22 april, thu
thu2200:000n410775 0.0 1033364
03:00−1nne48885 0.0 1035438
06:00−2nne48825 0.0 1038401
09:00+1ne57666 0.0 1040727
12:00+4ene455055 0.0 10421373
15:00+6ne344011 0.0 10421631
18:00+6ene44385 0.0 10421631
21:00+3ese34555 0.0 104484
23 april, fri
fri2300:00+1ese36639 0.0 1045136
03:000ese34673 0.0 104487
06:00−1ese23695 0.0 104554
09:00+3ese34510 0.0 1045629
12:00+5ese33410 0.0 10441233
15:00+7e33350 0.0 10421433
18:00+8e33352 0.0 10421541
21:00+5e35523 0.0 104285